(338876) = 2001 FG116 = 2004 BB57

Discovered at Socorro on 2004-01-23 by LINEAR.

Orbit

Orbit type: Main Belt

Note: WebGL enabled browser required.

epoch2023-02-25.0
epoch JD2460000.5
perihelion date2022-12-25.66611
perihelion JD2459939.16611
argument of perihelion (°)67.71903
ascending node (°)10.16414
inclination (°)4.61982
eccentricity0.0966912
perihelion distance (AU)1.9722022
Tisserand w.r.t. Jupiter3.7
ΔV w.r.t. Earth (km/sec)8.7
semimajor axis (AU)2.1833090
mean anomaly (°)18.73836
mean daily motion (°/day)0.30551400
aphelion distance (AU)2.394
period (years)3.23
P-vector [x]0.21043639
P-vector [y]0.86468072
P-vector [z]0.45611817
Q-vector [x]-0.97750422
Q-vector [y]0.17932508
Q-vector [z]0.11103159
absolute magnitude17.53
phase slope0.15
uncertainty0
referenceMPO 730659
observations used427
oppositions13
arc length (days)7965
first opposition used2001
last opposition used2023
residual rms (arc-secs)0.77
perturbers coarse indicatorM-v
perturbers precise indicator003Ek
first observation date used2001-03-19.0
last observation date used2023-01-08.0
computer nameMPCLINUX
JD of orbit computation2456937.460045
perihelion JD uncertainty (days)2.6692E-04
argument of perihelion uncertainty (°)1.0951E-04
ascending node uncertainty (°)7.3943E-05
inclination uncertainty (°)1.2221E-05
eccentricity uncertainty 8.5192E-08
perihelion distance uncertainty (AU)1.9537E-07
Minimum Orbit Intersection Distances (in AU)
for orbit epoch: 2460000.5, reference: E2023-A20
Mercury1.66473
Venus1.25484
Earth0.99163
Mars0.39232
Jupiter2.78132
Saturn7.09449
Uranus16.247
Neptune27.7634

Observations

440 total observations over interval: 2001 03 19.27485 – 2023 01 08.363756
These data are available for download (format description).

Date (UT) J2000 RA J2000 Dec Magn Location Ref
2001 03 19.27485 12 07 51.71 +00 45 41.5 20.3 V 691 – Steward Observatory, Kitt Peak-Spacewatch MPS 28478
2001 03 19.29613 12 07 50.27 +00 45 47.3 20.3 V 691 – Steward Observatory, Kitt Peak-Spacewatch MPS 28478
2001 03 19.31828 12 07 48.77 +00 45 53.0 20.3 V 691 – Steward Observatory, Kitt Peak-Spacewatch MPS 28478
2001 03 20.42407 12 06 36.94 +00 50 33.9 20.7   608 – Haleakala-AMOS MPS 28478
2001 03 20.43540 12 06 36.17 +00 50 37.0 20.3   608 – Haleakala-AMOS MPS 28478
2001 03 20.44603 12 06 35.45 +00 50 39.7 21.1   608 – Haleakala-AMOS MPS 28478
2002 08 13.21241 21 07 09.40 -23 34 42.0 21.0   644 – Palomar Mountain/NEAT MPS 178446
2002 08 13.27690 21 07 04.87 -23 34 53.0 20.3   644 – Palomar Mountain/NEAT MPS 178446
2002 08 13.34672 21 07 00.01 -23 35 04.9 20.2   644 – Palomar Mountain/NEAT MPS 178446
2004 01 23.32966 10 09 54.30 +18 40 30.3 19.6   704 – Lincoln Laboratory ETS, New Mexico MPS 97932
2004 01 23.34233 10 09 53.69 +18 40 34.5 19.9   704 – Lincoln Laboratory ETS, New Mexico MPS 97932
2004 01 23.35524 10 09 52.96 +18 40 37.1 20.3   704 – Lincoln Laboratory ETS, New Mexico MPS 97932
2004 01 23.36802 10 09 52.35 +18 40 40.7 20.7   704 – Lincoln Laboratory ETS, New Mexico MPS 97932
2004 01 23.38071 10 09 51.72 +18 40 44.4 19.9   704 – Lincoln Laboratory ETS, New Mexico MPS 97932
2004 01 24.33508 10 09 05.42 +18 44 48.3 19.8   704 – Lincoln Laboratory ETS, New Mexico MPS 97932
2004 01 24.34770 10 09 04.72 +18 44 51.3 20.1   704 – Lincoln Laboratory ETS, New Mexico MPS 97932
2004 01 24.36034 10 09 04.09 +18 44 54.3 20.4   704 – Lincoln Laboratory ETS, New Mexico MPS 97932
2004 01 24.37294 10 09 03.44 +18 44 57.0 20.2   704 – Lincoln Laboratory ETS, New Mexico MPS 97932
2004 01 24.38543 10 09 02.74 +18 44 59.9 19.9   704 – Lincoln Laboratory ETS, New Mexico MPS 97932
2004 01 30.33144 10 03 36.98 +19 10 55.9 19.4   704 – Lincoln Laboratory ETS, New Mexico MPS 97932
2004 01 30.34330 10 03 36.21 +19 10 58.2 20.1   704 – Lincoln Laboratory ETS, New Mexico MPS 97932
2004 01 30.37918 10 03 34.10 +19 11 07.2 19.8   704 – Lincoln Laboratory ETS, New Mexico MPS 97932
2004 02 16.28652 09 44 46.48 +20 16 41.8 20.0   704 – Lincoln Laboratory ETS, New Mexico MPS 112895
2004 02 16.29815 09 44 45.70 +20 16 44.4 19.7   704 – Lincoln Laboratory ETS, New Mexico MPS 112895
2004 02 16.30989 09 44 44.82 +20 16 46.3 19.5   704 – Lincoln Laboratory ETS, New Mexico MPS 112895
2004 02 16.32153 09 44 43.98 +20 16 48.4 19.7   704 – Lincoln Laboratory ETS, New Mexico MPS 112895
2006 12 12.46933 06 55 32.38 +31 37 27.5 19.7 R 644 – Palomar Mountain/NEAT MPS 192152
2006 12 12.49080 06 55 31.12 +31 37 31.8 19.1 R 644 – Palomar Mountain/NEAT MPS 192152
2006 12 12.51241 06 55 29.80 +31 37 35.9 19.7 R 644 – Palomar Mountain/NEAT MPS 192152
2006 12 14.34880 06 53 42.21 +31 44 13.8 19.6 R 644 – Palomar Mountain/NEAT MPS 192152
2006 12 14.36950 06 53 40.92 +31 44 18.3 19.8 R 644 – Palomar Mountain/NEAT MPS 192152
2006 12 14.39049 06 53 39.57 +31 44 22.5 19.8 R 644 – Palomar Mountain/NEAT MPS 192152
2009 09 23.40356 03 28 50.12 +21 38 27.1 20.2 V G96 – Mt. Lemmon Survey MPS 295788
2009 09 23.40914 03 28 50.19 +21 38 28.5 20.4 V G96 – Mt. Lemmon Survey MPS 295788
2009 09 23.41469 03 28 50.26 +21 38 29.9 20.6 V G96 – Mt. Lemmon Survey MPS 295788
2009 09 23.42029 03 28 50.34 +21 38 31.5 20.3 V G96 – Mt. Lemmon Survey MPS 295788
2009 10 22.39505 03 19 56.24 +23 05 47.4 20.4 V 703 – Catalina Sky Survey MPS 300631
2009 10 22.40045 03 19 55.99 +23 05 48.5 18.6 V 703 – Catalina Sky Survey MPS 300631
2009 10 22.40594 03 19 55.66 +23 05 48.2 19.5 V 703 – Catalina Sky Survey MPS 300631
2009 10 22.41134 03 19 55.38 +23 05 49.3 19.5 V 703 – Catalina Sky Survey MPS 300631
2009 10 24.27559 03 18 18.28 +23 07 31.1 19.0 V 703 – Catalina Sky Survey MPS 300631
2009 10 24.28403 03 18 17.74 +23 07 30.5 19.4 V 703 – Catalina Sky Survey MPS 300631
2009 10 24.29249 03 18 17.24 +23 07 32.1 19.2 V 703 – Catalina Sky Survey MPS 300631
2009 10 24.30091 03 18 16.77 +23 07 31.5 19.1 V 703 – Catalina Sky Survey MPS 300631
2009 10 25.25708 03 17 24.39 +23 08 11.2 19.4 V 703 – Catalina Sky Survey MPS 300631
2009 10 25.26067 03 17 24.21 +23 08 12.8 19.6 V 703 – Catalina Sky Survey MPS 300631
2009 10 25.26424 03 17 24.07 +23 08 10.5 19.6 V 703 – Catalina Sky Survey MPS 300631
2009 10 25.26791 03 17 23.74 +23 08 11.9 20.4 V 703 – Catalina Sky Survey MPS 300631
2009 11 08.14200 03 02 29.05 +23 01 24.9 19.6 V 691 – Steward Observatory, Kitt Peak-Spacewatch MPS 302146
2009 11 08.15918 03 02 27.82 +23 01 23.5 19.4 V 691 – Steward Observatory, Kitt Peak-Spacewatch MPS 302146
2009 11 08.17636 03 02 26.57 +23 01 23.4 19.1 V 691 – Steward Observatory, Kitt Peak-Spacewatch MPS 302146
2009 11 08.25609 03 02 20.83 +23 01 15.0 19.2 V 703 – Catalina Sky Survey MPS 302146
2009 11 08.26340 03 02 20.25 +23 01 14.7 19.0 V 703 – Catalina Sky Survey MPS 302146
2009 11 08.27062 03 02 19.78 +23 01 13.1 19.0 V 703 – Catalina Sky Survey MPS 302146
2009 11 08.27785 03 02 19.21 +23 01 12.6 19.1 V 703 – Catalina Sky Survey MPS 302146
2009 11 12.25242 02 57 39.54 +22 54 00.6 19.2   704 – Lincoln Laboratory ETS, New Mexico MPS 302146
2009 11 12.26475 02 57 38.66 +22 53 59.9 18.7   704 – Lincoln Laboratory ETS, New Mexico MPS 302146
2009 11 12.30139 02 57 35.90 +22 53 54.1 19.4   704 – Lincoln Laboratory ETS, New Mexico MPS 302146
2009 11 16.25055 02 53 01.40 +22 44 55.2 19.1   704 – Lincoln Laboratory ETS, New Mexico MPS 306614
2009 11 16.26280 02 53 00.56 +22 44 52.2 19.4   704 – Lincoln Laboratory ETS, New Mexico MPS 306614
2009 11 16.27508 02 52 59.64 +22 44 49.7 19.9   704 – Lincoln Laboratory ETS, New Mexico MPS 306614
2009 11 16.28736 02 52 58.83 +22 44 46.3 19.7   704 – Lincoln Laboratory ETS, New Mexico MPS 306614
2009 11 16.29965 02 52 57.95 +22 44 47.7 19.6   704 – Lincoln Laboratory ETS, New Mexico MPS 306614
2010 01 06.20862 02 35 27.42 +21 29 29.2 20.4 V G96 – Mt. Lemmon Survey MPS 309304
2010 01 06.21573 02 35 27.67 +21 29 29.8 20.4 V G96 – Mt. Lemmon Survey MPS 309304
2010 01 06.22286 02 35 27.96 +21 29 30.5 20.2 V G96 – Mt. Lemmon Survey MPS 309304
2010 01 06.23006 02 35 28.17 +21 29 30.8 20.1 V G96 – Mt. Lemmon Survey MPS 309304
2012 09 11.27585 00 34 51.69 +02 00 36.6 20.7 G G45 – Space Surveillance Telescope, Atom Site MPS 1609732
2012 09 11.32559 00 34 49.07 +02 00 28.2 20.3 G G45 – Space Surveillance Telescope, Atom Site MPS 1609732
2012 09 11.39416 00 34 45.44 +02 00 17.1 19.6 G G45 – Space Surveillance Telescope, Atom Site MPS 1609732
2012 09 11.43407 00 34 43.22 +02 00 10.1 20.1 G G45 – Space Surveillance Telescope, Atom Site MPS 1609732
2012 09 14.32181 00 32 11.04 +01 51 52.0 21.4 V 703 – Catalina Sky Survey MPS 431322
2012 09 14.32859 00 32 10.64 +01 51 49.8 20.0 V 703 – Catalina Sky Survey MPS 431322
2012 09 14.33529 00 32 10.32 +01 51 47.0 20.4 V 703 – Catalina Sky Survey MPS 431322
2012 09 14.34205 00 32 09.88 +01 51 46.2 19.8 V 703 – Catalina Sky Survey MPS 431322
2012 09 17.17742 00 29 30.13 +01 42 48.7 20.0 V 691 – Steward Observatory, Kitt Peak-Spacewatch MPS 431871
2012 09 17.19512 00 29 29.12 +01 42 45.2 20.2 V 691 – Steward Observatory, Kitt Peak-Spacewatch MPS 431871
2012 09 17.21284 00 29 28.05 +01 42 41.7 20.0 V 691 – Steward Observatory, Kitt Peak-Spacewatch MPS 431871
2012 09 22.26478 00 24 23.19 +01 25 19.4 20.3   704 – Lincoln Laboratory ETS, New Mexico MPS 433322
2012 09 22.27941 00 24 22.26 +01 25 16.3 20.3   704 – Lincoln Laboratory ETS, New Mexico MPS 433322
2012 09 22.29425 00 24 21.23 +01 25 15.5 19.9   704 – Lincoln Laboratory ETS, New Mexico MPS 433322
2012 09 22.30885 00 24 20.28 +01 25 11.5 20.2   704 – Lincoln Laboratory ETS, New Mexico MPS 433322
2012 09 23.32509 00 23 16.83 +01 21 31.8 19.6 V G96 – Mt. Lemmon Survey MPS 433322
2012 09 23.32851 00 23 16.62 +01 21 31.3 19.6 V G96 – Mt. Lemmon Survey MPS 433322
2012 09 23.33194 00 23 16.40 +01 21 30.4 19.5 V G96 – Mt. Lemmon Survey MPS 433322
2012 09 23.33537 00 23 16.15 +01 21 29.6 19.4 V G96 – Mt. Lemmon Survey MPS 433322
2012 10 05.26392 00 10 38.49 +00 38 46.5 19.7 V G96 – Mt. Lemmon Survey MPS 434105
2012 10 05.27076 00 10 38.02 +00 38 45.1 19.7 V G96 – Mt. Lemmon Survey MPS 434105
